, LA

(GMT )
Venice

Weather History for K1B7 - December, 2013

Change the Weather History Date:

Sunday, December 8, 2013

  Actual Average Record
Temperature  
Mean Temperature 64 °F -  
Max Temperature 73 °F - - ()
Min Temperature 55 °F - - ()
Degree Days  
Heating Degree Days 1    
Growing Degree Days 14 (Base 50)    
Moisture  
Dew Point 62 °F    
Average Humidity 98    
Maximum Humidity 100    
Minimum Humidity 88    
Precipitation  
Precipitation 0.00 in - - ()
Sea Level Pressure  
Sea Level Pressure 30.08 in    
Wind  
Wind Speed 10 mph (NE)    
Max Wind Speed 16 mph    
Max Gust Speed 21 mph    
Visibility 3 miles    
Events Fog    
Averages and records for this station are not official NWS values.
T = Trace of Precipitation, MM = Missing Value Source: NWS Daily Summary

Daily Weather History Graph

Daily Weather History Graph

Search for Another Location

Airport or City:

Astronomy

Dec. 08, 2013 Rise Set
Actual Time 6:40 AM CST 4:59 PM CST
Civil Twilight 6:14 AM CST 5:25 PM CST
Nautical Twilight 5:44 AM CST 5:55 PM CST
Astronomical Twilight 5:15 AM CST 6:24 PM CST
Moon 11:21 AM CST (12/8) 11:25 PM CST (12/8)
Length of Visible Light 11h 11m
Length of Day
10h 19m
Waxing Crescent, 40% of the Moon is Illuminated
Dec 8
Waxing Crescent
Dec 9
First Quarter
Dec 17
Full
Dec 25
Last Quarter
Jan 1
New

Hourly Weather History & Observations

Time (CST) Temp. Dew Point Humidity Pressure Visibility Wind Dir Wind Speed Gust Speed Precip Events Conditions
4:58 AM 55.4 °F 55.4 °F 100% 30.11 in 0.2 mi East 13.8 mph - N/A Fog Fog
5:32 AM 55.4 °F 55.4 °F 100% 30.11 in 0.2 mi East 16.1 mph 20.7 mph N/A Fog Fog
6:22 AM 57.2 °F 57.2 °F 100% 30.12 in 0.2 mi NE 9.2 mph - N/A Fog Fog
6:45 AM 57.2 °F 57.2 °F 100% 30.12 in 0.2 mi NNE 8.1 mph - N/A Fog Fog
7:10 AM 57.2 °F 57.2 °F 100% 30.13 in 0.2 mi NNE 10.4 mph - N/A Fog Fog
7:45 AM 59.0 °F 59.0 °F 100% 30.12 in 0.2 mi NE 9.2 mph - N/A Fog Fog
8:14 AM 59.0 °F 59.0 °F 100% 30.12 in 0.2 mi NNE 9.2 mph - N/A Fog Fog
8:45 AM 59.0 °F 59.0 °F 100% 30.12 in 0.2 mi NE 8.1 mph - N/A Fog Fog
9:35 AM 60.8 °F 60.8 °F 100% 30.11 in 0.2 mi ENE 8.1 mph - N/A Fog Fog
10:00 AM 62.6 °F 62.6 °F 100% 30.11 in 0.2 mi NE 6.9 mph - N/A Fog Fog
10:45 AM 64.4 °F 64.4 °F 100% 30.09 in 0.2 mi ENE 4.6 mph - N/A Fog Fog
11:02 AM 66.2 °F 66.2 °F 100% 30.09 in 6.0 mi NNE 5.8 mph - N/A   Mostly Cloudy
11:06 AM 64.4 °F 64.4 °F 100% 30.09 in 5.0 mi NW 6.9 mph - N/A   Scattered Clouds
11:14 AM 62.6 °F 62.6 °F 100% 30.09 in 0.2 mi NW 10.4 mph - N/A Fog Fog
11:45 AM 62.6 °F 62.6 °F 100% 30.08 in 0.2 mi NNW 8.1 mph - N/A Fog Fog
12:14 PM 60.8 °F 60.8 °F 100% 30.06 in 0.2 mi North 6.9 mph - N/A Fog Fog
12:45 PM 60.8 °F 60.8 °F 100% 30.04 in 0.2 mi NNE 9.2 mph - N/A Fog Fog
1:13 PM 60.8 °F 60.8 °F 100% 30.03 in 3.0 mi Variable 2.3 mph - N/A   Mostly Cloudy
1:45 PM 64.4 °F 62.6 °F 94% 30.02 in 5.0 mi Variable 2.3 mph - N/A   Mostly Cloudy
2:13 PM 66.2 °F 64.4 °F 94% 30.02 in 10.0 mi Variable 2.3 mph - N/A   Overcast
2:45 PM 73.4 °F 69.8 °F 88% 30.01 in 10.0 mi South 11.5 mph - N/A   Overcast
3:13 PM 73.4 °F 69.8 °F 88% 30.02 in 10.0 mi South 8.1 mph - N/A   Mostly Cloudy
3:37 PM 73.4 °F 69.8 °F 88% 30.03 in 10.0 mi South 8.1 mph - N/A   Mostly Cloudy